Time,TemperatureF,DewpointF,PressureIn,WindDirection,WindDirectionDegrees,WindSpeedMPH,WindSpeedGustMPH,Humidity,HourlyPrecipIn,Conditions,Clouds,dailyrainin,SoftwareType,DateUTC
2013-07-08 00:01:00,75.0,71.0,30.08,SSW,196,0.0,0.0,86,0.00,,,0.00,,2013-07-08 05:01:00,
2013-07-08 00:12:00,75.0,71.0,30.08,SSW,196,0.0,0.0,86,0.00,,,0.00,,2013-07-08 05:12:00,
2013-07-08 00:22:00,75.0,71.0,30.08,SSW,196,0.0,0.0,86,0.00,,,0.00,,2013-07-08 05:22:00,
2013-07-08 00:33:00,74.0,70.0,30.09,SSW,196,0.0,0.0,87,0.00,,,0.00,,2013-07-08 05:33:00,
2013-07-08 00:43:00,74.0,70.0,30.08,SSW,196,0.0,0.0,88,0.00,,,0.00,,2013-07-08 05:43:00,
2013-07-08 00:53:00,74.0,70.0,30.08,SSW,196,0.0,0.0,88,0.00,,,0.00,,2013-07-08 05:53:00,
2013-07-08 01:01:00,74.0,70.0,30.08,SSW,195,0.0,0.0,88,0.00,,,0.00,,2013-07-08 06:01:00,
2013-07-08 01:12:00,74.0,70.0,30.08,SSW,195,0.0,1.0,88,0.00,,,0.00,,2013-07-08 06:12:00,
2013-07-08 01:22:00,74.0,70.0,30.08,SSW,195,0.0,1.0,88,0.00,,,0.00,,2013-07-08 06:22:00,
2013-07-08 01:33:00,74.0,71.0,30.08,SSW,195,0.0,0.0,89,0.00,,,0.00,,2013-07-08 06:33:00,
2013-07-08 01:43:00,74.0,71.0,30.08,SSW,195,0.0,0.0,89,0.00,,,0.00,,2013-07-08 06:43:00,
2013-07-08 01:53:00,74.0,71.0,30.08,SSW,195,0.0,0.0,89,0.00,,,0.00,,2013-07-08 06:53:00,
2013-07-08 02:02:00,74.0,71.0,30.08,SSW,195,0.0,0.0,89,0.00,,,0.00,,2013-07-08 07:02:00,
2013-07-08 02:12:00,74.0,71.0,30.08,SSW,195,0.0,0.0,89,0.00,,,0.00,,2013-07-08 07:12:00,
2013-07-08 02:22:00,74.0,71.0,30.08,SSW,195,0.0,0.0,89,0.00,,,0.00,,2013-07-08 07:22:00,
2013-07-08 02:34:00,73.0,70.0,30.07,SSW,195,0.0,0.0,89,0.00,,,0.00,,2013-07-08 07:34:00,
2013-07-08 02:44:00,73.0,70.0,30.07,SSW,195,0.0,0.0,89,0.00,,,0.00,,2013-07-08 07:44:00,
2013-07-08 02:53:00,73.0,70.0,30.07,SSW,195,0.0,0.0,89,0.00,,,0.00,,2013-07-08 07:53:00,
2013-07-08 03:02:00,73.0,70.0,30.07,SSW,195,0.0,0.0,90,0.00,,,0.00,,2013-07-08 08:02:00,
2013-07-08 03:12:00,73.0,70.0,30.07,SSW,195,0.0,0.0,91,0.00,,,0.00,,2013-07-08 08:12:00,
2013-07-08 03:22:00,73.0,70.0,30.07,SSW,195,0.0,0.0,91,0.00,,,0.00,,2013-07-08 08:22:00,
2013-07-08 03:33:00,73.0,70.0,30.06,SSW,195,0.0,0.0,91,0.00,,,0.00,,2013-07-08 08:33:00,
2013-07-08 03:42:00,73.0,70.0,30.06,SSW,195,0.0,0.0,91,0.00,,,0.00,,2013-07-08 08:42:00,
2013-07-08 03:53:00,73.0,70.0,30.06,SSW,195,0.0,0.0,91,0.00,,,0.00,,2013-07-08 08:53:00,
2013-07-08 04:02:00,73.0,70.0,30.06,SSW,195,0.0,0.0,91,0.00,,,0.00,,2013-07-08 09:02:00,
2013-07-08 04:11:00,72.0,69.0,30.06,SSW,195,0.0,0.0,91,0.00,,,0.00,,2013-07-08 09:11:00,
2013-07-08 04:22:00,72.0,69.0,30.06,SSW,195,0.0,0.0,91,0.00,,,0.00,,2013-07-08 09:22:00,
2013-07-08 04:34:00,72.0,70.0,30.06,SSW,194,0.0,0.0,92,0.00,,,0.00,,2013-07-08 09:34:00,
2013-07-08 04:40:00,72.0,70.0,30.06,SSW,194,0.0,0.0,92,0.00,,,0.00,,2013-07-08 09:40:00,
2013-07-08 04:43:00,72.0,70.0,30.06,SSW,194,0.0,0.0,92,0.00,,,0.00,,2013-07-08 09:43:00,
2013-07-08 04:52:00,72.0,70.0,30.06,SSW,194,0.0,0.0,92,0.00,,,0.00,,2013-07-08 09:52:00,
2013-07-08 05:02:00,72.0,70.0,30.06,SSW,194,0.0,0.0,92,0.00,,,0.00,,2013-07-08 10:02:00,
2013-07-08 05:11:00,72.0,70.0,30.06,SSW,194,0.0,0.0,92,0.00,,,0.00,,2013-07-08 10:11:00,
2013-07-08 05:22:00,72.0,70.0,30.06,SSW,194,0.0,0.0,92,0.00,,,0.00,,2013-07-08 10:22:00,
2013-07-08 05:34:00,72.0,70.0,30.06,SSW,194,0.0,0.0,92,0.00,,,0.00,,2013-07-08 10:34:00,
2013-07-08 11:01:00,85.0,74.0,30.11,SE,126,0.0,3.0,70,0.00,,,0.00,,2013-07-08 16:01:00,
2013-07-08 11:11:00,86.0,74.0,30.13,SSE,167,0.0,2.0,67,0.00,,,0.00,,2013-07-08 16:11:00,
2013-07-08 11:22:00,86.0,74.0,30.13,SSE,167,0.0,2.0,67,0.00,,,0.00,,2013-07-08 16:22:00,
2013-07-08 11:33:00,86.0,74.0,30.13,SSW,196,2.0,3.0,68,0.00,,,0.00,,2013-07-08 16:33:00,
2013-07-08 11:43:00,87.0,74.0,30.13,WNW,283,3.0,6.0,66,0.00,,,0.00,,2013-07-08 16:43:00,
2013-07-08 11:54:00,87.0,74.0,30.13,WNW,283,3.0,6.0,66,0.00,,,0.00,,2013-07-08 16:54:00,
2013-07-08 12:07:00,87.0,74.0,30.13,South,181,2.0,2.0,65,0.00,,,0.00,,2013-07-08 17:07:00,
2013-07-08 12:14:00,87.0,73.0,30.13,WNW,294,1.0,3.0,64,0.00,,,0.00,,2013-07-08 17:14:00,
2013-07-08 12:37:00,87.0,72.0,30.13,South,171,0.0,2.0,62,0.00,,,0.00,,2013-07-08 17:37:00,
2013-07-08 12:45:00,87.0,71.0,30.12,WSW,243,1.0,3.0,60,0.00,,,0.00,,2013-07-08 17:45:00,
2013-07-08 12:54:00,87.0,71.0,30.12,WSW,243,1.0,3.0,60,0.00,,,0.00,,2013-07-08 17:54:00,
2013-07-08 13:21:00,88.0,71.0,30.11,West,270,0.0,4.0,58,0.00,,,0.00,,2013-07-08 18:21:00,
2013-07-08 13:32:00,88.0,71.0,30.11,West,270,0.0,4.0,58,0.00,,,0.00,,2013-07-08 18:32:00,
2013-07-08 13:42:00,88.0,73.0,30.11,SSW,201,2.0,4.0,62,0.00,,,0.00,,2013-07-08 18:42:00,
2013-07-08 13:49:00,88.0,73.0,30.10,SE,126,1.0,3.0,61,0.00,,,0.00,,2013-07-08 18:49:00,
2013-07-08 13:56:00,88.0,73.0,30.10,SE,126,1.0,3.0,61,0.00,,,0.00,,2013-07-08 18:56:00,
2013-07-08 14:10:00,88.0,72.0,30.10,South,169,0.0,3.0,60,0.00,,,0.00,,2013-07-08 19:10:00,
2013-07-08 14:19:00,88.0,72.0,30.09,South,191,0.0,1.0,60,0.00,,,0.00,,2013-07-08 19:19:00,
2013-07-08 14:31:00,88.0,72.0,30.09,South,191,0.0,1.0,60,0.00,,,0.00,,2013-07-08 19:31:00,
2013-07-08 14:37:00,88.0,72.0,30.09,ESE,119,0.0,1.0,59,0.00,,,0.00,,2013-07-08 19:37:00,
2013-07-08 14:58:00,87.0,71.0,30.09,SE,132,0.0,1.0,60,0.00,,,0.00,,2013-07-08 19:58:00,
2013-07-08 15:19:00,90.0,76.0,30.08,South,171,0.0,1.0,64,0.00,,,0.00,,2013-07-08 20:19:00,
2013-07-08 15:30:00,90.0,76.0,30.08,South,171,0.0,1.0,64,0.00,,,0.00,,2013-07-08 20:30:00,
2013-07-08 15:42:00,89.0,73.0,30.07,South,186,0.0,2.0,59,0.00,,,0.00,,2013-07-08 20:42:00,
2013-07-08 15:59:00,91.0,74.0,30.06,South,191,3.0,3.0,57,0.00,,,0.00,,2013-07-08 20:59:00,
2013-07-08 16:20:00,88.0,71.0,30.06,SW,215,5.0,5.0,57,0.00,,,0.00,,2013-07-08 21:20:00,
2013-07-08 16:32:00,88.0,71.0,30.06,SW,215,5.0,5.0,57,0.00,,,0.00,,2013-07-08 21:32:00,
2013-07-08 16:40:00,89.0,72.0,30.05,SSE,148,2.0,2.0,57,0.00,,,0.00,,2013-07-08 21:40:00,
2013-07-08 16:41:00,86.0,71.0,30.06,SSE,165,0.0,0.0,61,0.00,,,0.00,,2013-07-08 21:41:00,
2013-07-08 16:49:00,87.0,71.0,30.05,South,175,1.0,1.0,59,0.00,,,0.00,,2013-07-08 21:49:00,
2013-07-08 17:15:00,89.0,72.0,30.05,SSE,148,2.0,2.0,57,0.00,,,0.00,,2013-07-08 22:15:00,
2013-07-08 17:21:00,89.0,72.0,30.05,SSE,148,2.0,2.0,57,0.00,,,0.00,,2013-07-08 22:21:00,
2013-07-08 17:30:00,89.0,72.0,30.05,SSE,148,2.0,2.0,57,0.00,,,0.00,,2013-07-08 22:30:00,